| time (UTC) | temp F | wind direction | speed knots | gust knots | rain 1hr in | rain 24hr in | rain mn in | humidity % | barometer mb |
| 20260506134518 | 74 | 204 | 4.3 | 14.8 | 0.00 | 0.00 | 0.00 | 76 | 1015.4 |
| 20260506133015 | 73 | 247 | 2.6 | 15.6 | 0.00 | 0.00 | 0.00 | 78 | 1015.4 |
| 20260506131517 | 72 | 188 | 1.7 | 11.3 | 0.00 | 0.00 | 0.00 | 80 | 1015.3 |
| 20260506130008 | 71 | 206 | 0.0 | 13.9 | 0.00 | 0.00 | 0.00 | 83 | 1015.6 |
| 20260506124505 | 70 | 214 | 0.0 | 10.4 | 0.00 | 0.00 | 0.00 | 85 | 1015.7 |
| 20260506123003 | 69 | 220 | 0.0 | 7.8 | 0.00 | 0.00 | 0.00 | 86 | 1015.6 |
| 20260506121613 | 68 | 174 | 0.0 | 7.8 | 0.00 | 0.00 | 0.00 | 88 | 1015.6 |
| 20260506120056 | 67 | 195 | 0.0 | 6.1 | 0.00 | 0.00 | 0.00 | 89 | 1015.7 |
| 20260506114553 | 65 | 204 | 0.0 | 8.7 | 0.00 | 0.00 | 0.00 | 91 | 1016.0 |
| 20260506113049 | 64 | 172 | 0.0 | 5.2 | 0.00 | 0.00 | 0.00 | 93 | 1015.6 |
| 20260506111549 | 63 | 195 | 0.0 | 7.0 | 0.00 | 0.00 | 0.00 | 94 | 1015.5 |
| 20260506110048 | 62 | 189 | 0.0 | 2.6 | 0.00 | 0.00 | 0.00 | 95 | 1015.7 |
| 20260506104550 | 61 | 181 | 0.0 | 2.6 | 0.00 | 0.00 | 0.00 | 95 | 1015.7 |
| 20260506103047 | 61 | 183 | 0.0 | 1.7 | 0.00 | 0.00 | 0.00 | 95 | 1015.8 |
| 20260506101556 | 61 | 177 | 0.0 | 1.7 | 0.00 | 0.00 | 0.00 | 94 | 1015.6 |
| 20260506100046 | 61 | 173 | 0.0 | 0.9 | 0.00 | 0.00 | 0.00 | 94 | 1015.2 |
| 20260506094548 | 61 | 193 | 0.0 | 1.7 | 0.00 | 0.00 | 0.00 | 94 | 1015.4 |
| 20260506093044 | 62 | 187 | 0.0 | 3.5 | 0.00 | 0.00 | 0.00 | 93 | 1015.5 |
| 20260506091543 | 62 | 197 | 0.0 | 1.7 | 0.00 | 0.00 | 0.00 | 93 | 1015.8 |
| 20260506090051 | 62 | 191 | 0.0 | 2.6 | 0.00 | 0.00 | 0.00 | 93 | 1015.7 |
| 20260506084546 | 62 | 194 | 0.0 | 3.5 | 0.00 | 0.00 | 0.00 | 93 | 1015.8 |
| 20260506083040 | 62 | 185 | 0.0 | 2.6 | 0.00 | 0.00 | 0.00 | 93 | 1015.7 |
| 20260506081543 | 62 | 191 | 0.0 | 1.7 | 0.00 | 0.00 | 0.00 | 93 | 1015.6 |
| 20260506073038 | 62 | 193 | 0.0 | 2.6 | 0.00 | 0.00 | 0.00 | 93 | 1015.7 |
| 20260506071538 | 62 | 185 | 0.0 | 1.7 | 0.00 | 0.00 | 0.00 | 92 | 1015.6 |
| 20260506061520 | 63 | 177 | 0.0 | 3.5 | 0.00 | 0.00 | 0.00 | 90 | 1016.2 |
| 20260506044516 | 64 | 193 | 0.0 | 4.3 | 0.00 | 0.00 | 0.00 | 90 | 1017.0 |
| 20260506043011 | 64 | 183 | 0.0 | 2.6 | 0.00 | 0.00 | 0.00 | 90 | 1017.3 |
| 20260506031524 | 65 | 189 | 0.0 | 4.3 | 0.00 | 0.00 | 0.00 | 86 | 1017.3 |
| 20260506030027 | 65 | 195 | 0.0 | 3.5 | 0.00 | 0.00 | 0.00 | 85 | 1017.2 |
| 20260506024528 | 65 | 177 | 0.0 | 5.2 | 0.00 | 0.00 | 0.00 | 83 | 1017.3 |
| 20260506023022 | 66 | 196 | 0.0 | 5.2 | 0.00 | 0.00 | 0.00 | 82 | 1017.4 |
| 20260505213018 | 76 | 173 | 5.2 | 16.5 | 0.00 | 0.00 | 0.00 | 64 | 1015.4 |
| 20260505211519 | 76 | 235 | 4.3 | 14.8 | 0.00 | 0.00 | 0.00 | 62 | 1015.5 |
| 20260505210018 | 77 | 223 | 5.2 | 15.6 | 0.00 | 0.00 | 0.00 | 62 | 1015.6 |
| 20260505204518 | 77 | 166 | 9.6 | 15.6 | 0.00 | 0.00 | 0.00 | 61 | 1015.4 |
| 20260505203016 | 78 | 190 | 8.7 | 20.0 | 0.00 | 0.00 | 0.00 | 61 | 1015.4 |
| 20260505201515 | 78 | 166 | 3.5 | 20.9 | 0.00 | 0.00 | 0.00 | 60 | 1015.5 |
| 20260505200017 | 78 | 174 | 3.5 | 15.6 | 0.00 | 0.00 | 0.00 | 60 | 1015.9 |
| 20260505194514 | 78 | 170 | 0.9 | 16.5 | 0.00 | 0.00 | 0.00 | 61 | 1016.0 |
| 20260505193111 | 78 | 186 | 5.2 | 16.5 | 0.00 | 0.00 | 0.00 | 60 | 1016.1 |
| 20260505191523 | 79 | 193 | 1.7 | 17.4 | 0.00 | 0.00 | 0.00 | 55 | 1016.3 |
| 20260505190010 | 79 | 206 | 3.5 | 18.2 | 0.00 | 0.00 | 0.00 | 53 | 1016.5 |
| 20260505184510 | 79 | 182 | 3.5 | 14.8 | 0.00 | 0.00 | 0.00 | 52 | 1016.6 |
| 20260505183011 | 79 | 201 | 3.5 | 12.2 | 0.00 | 0.00 | 0.00 | 54 | 1016.6 |
| 20260505181508 | 79 | 201 | 0.9 | 11.3 | 0.00 | 0.00 | 0.00 | 55 | 1016.7 |
| 20260505180007 | 78 | 211 | 6.1 | 20.0 | 0.00 | 0.00 | 0.00 | 54 | 1016.7 |
| 20260505174507 | 78 | 218 | 0.9 | 18.2 | 0.00 | 0.00 | 0.00 | 54 | 1016.8 |
| 20260505173007 | 78 | 179 | 0.0 | 13.9 | 0.00 | 0.00 | 0.00 | 55 | 1016.9 |
| 20260505171506 | 78 | 203 | 1.7 | 12.2 | 0.00 | 0.00 | 0.00 | 54 | 1017.2 |
| 20260505170005 | 77 | 218 | 7.0 | 15.6 | 0.00 | 0.00 | 0.00 | 52 | 1017.3 |
| 20260505164503 | 78 | 203 | 4.3 | 13.0 | 0.00 | 0.00 | 0.00 | 54 | 1017.4 |
| 20260505163003 | 77 | 203 | 0.0 | 10.4 | 0.00 | 0.00 | 0.00 | 56 | 1017.4 |
| 20260505161610 | 76 | 237 | 4.3 | 10.4 | 0.00 | 0.00 | 0.00 | 55 | 1017.8 |
| 20260505153052 | 74 | 187 | 0.9 | 12.2 | 0.00 | 0.00 | 0.00 | 61 | 1018.1 |
| 20260505151552 | 74 | 248 | 0.9 | 12.2 | 0.00 | 0.00 | 0.00 | 61 | 1018.3 |